Home > Weather > Providence > Past weeks

Flag for USA Weather for the Past 2 Weeks in Providence, Rhode Island, USA

Now
45 °F

Drizzle. Fog.


Feels Like: 37 °F
Forecast: 44 / 49 °F
Wind: 18 mph from Northeast

Location: Green State Airport

Current Time: May 5, 2016 at 6:35:30 AM

Latest Report: May 5, 2016 at 5:51 AM


Visibility: 6 mi

Pressure: 29.71 "Hg

Humidity: 90%

Dew Point: 42 °F

Location of ProvidenceLocation

Historic Weather in Providence — Graph

°F

Providence Temperature Yesterday

Maximum temperature yesterday: 52 °F (at 11:51 AM)
Minimum temperature yesterday: 44 °F (at 6:51 PM)
Average temperature yesterday: 47 °F

High & Low Weather Summary for the Past Weeks

 TemperatureHumidityPressure
High74 °F (Apr 22, 10:51 AM)97% (Apr 23, 6:51 AM)30.27 "Hg (Apr 23, 6:51 AM)
Low36 °F (Apr 27, 4:51 AM)14% (Apr 24, 3:51 PM)29.71 "Hg (May 5, 3:51 AM)
Average50 °F65%29.99 "Hg
* Reported Apr 20 4:51 AM — May 5 4:51 AM, Providence, Weather by CustomWeather, © 2016

Note: Actual official high and low records may vary slightly from our data, if they occured in-between our weather recording intervals... More about our weather records

Advertising

Providence Weather History for the Previous 24 Hours

Scroll right to see more
 ConditionsComfort  
Time TempWeatherWind HumidityBarometerVisibility
4:51 AM
Thu, May 5
45 °FOvercast.16 mph90%29.71 "Hg10 mi
3:51 AM45 °FLow clouds.15 mph90%29.71 "Hg10 mi
2:51 AM45 °FLow clouds.14 mph90%29.72 "Hg7 mi
1:51 AM45 °FFog.14 mph90%29.75 "Hg6 mi
12:51 AM45 °FFog.12 mph90%29.75 "Hg4 mi
11:51 PM
Wed, May 4
45 °FLow clouds.16 mph90%29.76 "Hg10 mi
10:51 PM45 °FLow clouds.12 mph90%29.76 "Hg10 mi
9:56 PM44 °FLight rain. Fog.16 mph93%29.79 "Hg5 mi
8:51 PM44 °FLight rain. Overcast.10 mph89%29.79 "Hg9 mi
7:51 PM44 °FRain. Fog.20 mph89%29.78 "Hg6 mi
6:51 PM44 °FRain. Fog.14 mph93%29.79 "Hg3 mi
5:59 PM45 °FLight rain. Mostly cloudy.16 mph90%29.78 "Hg9 mi
4:51 PM46 °FLight rain. Mostly cloudy.21 mph86%29.78 "Hg8 mi
3:51 PM49 °FOvercast.17 mph69%29.79 "Hg10 mi
2:51 PM51 °FOvercast.16 mph66%29.80 "Hg10 mi
1:59 PM52 °FMore clouds than sun.16 mph64%29.81 "Hg10 mi
12:51 PM52 °FMostly cloudy.14 mph66%29.85 "Hg10 mi
11:51 AM52 °FOvercast.15 mph66%29.85 "Hg10 mi
10:51 AM51 °FOvercast.12 mph71%29.87 "Hg10 mi
9:51 AM50 °FOvercast.10 mph74%29.85 "Hg10 mi
8:51 AM48 °FOvercast.12 mph80%29.85 "Hg10 mi
7:51 AM47 °FCloudy.9 mph86%29.87 "Hg10 mi
6:51 AM46 °FOvercast.8 mph86%29.87 "Hg10 mi
Weather by CustomWeather, © 2016

See weather overviewHow to use our weather pages